Location: Poughquag
(41.6090°N, 73.6820°W)
Time: 03:39:31
(UTC-04:00)

Transit 2A Rocket - Pass Details

Date: 31 May 2020
Orbit: 584 x 919 km, 66.7° (Epoch: 06 July)

Event Time Altitude Azimuth Distance (km) Brightness Sun altitude
Rises 06:48:30 0° 336° (NNW) 3,493 8.3 13.7°
Reaches altitude 10° 06:51:18 10° 347° (NNW) 2,582 7.8 14.2°
Maximum altitude 06:56:36 31° 48° (NE) 1,569 7.9 15.1°
Drops below altitude 10° 07:01:56 10° 108° (ESE) 2,605 8.9 16.1°
Sets 07:04:46 0° 119° (ESE) 3,530 9.2 16.6°
